User: anonymous   Login
Location: Lamoine Observatory
(44.4551°N, 68.3470°W)
Time: 22:36:46
(UTC-05:00)
Language:

Cosmos 1674 Rocket - Orbit

View from above orbital plane
View from above orbital plane
View from above satellite
View from above satellite

Ground track
Ground track

The orbit data is extracted from the following two-line orbital elements,

1 15945U 85069B   17021.28813621  .00000081  00000-0  68170-5 0  9990
2 15945  82.5278 270.5829 0020952  49.8960 310.4087 14.83904553699240
Epoch (UTC): 21 January 2017 06:54:54
Eccentricity: 0.0020952
inclination: 82.5278°
perigee height: 602 km
apogee height: 631 km
right ascension of ascending node: 270.5829°
argument of perigee: 49.8960°
revolutions per day: 14.83904553
mean anomaly at epoch: 310.4087°
orbit number at epoch: 69924

The dashed part of the orbit path shows where the satellite is in the earth's shadow,  

DLR